Weather in Görlitz

Germany     51°09′17″N   14°58′26″E
temp.,
°C
wind,
m/s
gust,
m/s
humid.,
%
clouds,
%
prec.,
mm/h
press.,
hPa
HPBL,
m
18 april, sun
sun1823:00+4wsw249672 0.1 1021137
02:00+3w119691 0.1 102123
05:00+4wsw1195100 0.0 102018
08:00+4w1395100 0.8 1019138
11:00+5s0199100 7.3 101963
14:00+7sw238258 12.4 1019532
17:00+9ssw1179100 0.0 1019332
20:00+7e1185100 0.1 102020
19 april, mon
mon1923:00+6e2387100 0.0 102086
02:00+4ese2292100 0.0 102023
05:00+4e2292100 0.0 102021
08:00+6e2483100 0.0 1020147
11:00+9ne347097 0.0 1020511
14:00+12ene2463100 0.1 10191265
17:00+9nne2481100 0.1 1018191
20:00+7wsw008686 0.1 101810
20 april, tue
tue2023:00+6wnw11885 0.0 101810
02:00+5ese11922 0.0 101710
05:00+4ese009220 0.0 101710
08:00+8ne127976 0.0 1017141
11:00+13e344699 0.1 10162029
14:00+13nne124599 0.1 10161794
17:00+12nne336196 0.4 1015927
20:00+9ne1177100 0.7 101510
21 april, wed
wed2123:00+7sse118371 0.0 101610
02:00+7sw1183100 0.0 101511
05:00+7ssw3382100 0.0 101553
08:00+9w357772 0.1 1015293
11:00+12w577068 0.5 1014886
14:00+13nw5669100 3.0 10131036
17:00+13wnw466840 1.4 10131016
20:00+10wnw497799 1.8 1014279
22 april, thu
thu2223:00+8wnw2490100 0.3 1015170
02:00+4w51187100 0.5 1017460
05:00+1w5119112 0.0 1018586
08:00+2w71184100 0.0 1019744
11:00+6w7106774 0.0 10201278
14:00+10wnw81140100 0.1 10192951
17:00+10wnw7114697 0.2 10192857
20:00+6nw35545 0.3 102285